SWR69D EBBR-LSZH

Flight info

Callsign SWR69D
Flight time 0h 48m
Altitude 31000
Route ROUSY DCT GTQ DCT BAMEV DCT BLM
Aircraft A320/M-SDE3FGHIRWY/LB1

Departure

Time 2026-05-04 10:25
Airport Brussels Airport (EBBR)

Arrival

Time 2026-05-04 11:14
Airport Zürich Airport (LSZH)
Time Latitude Longitude Altitude Speed Heading
2026-05-04 10:00 50.90277 4.48574 121 ft 0 kts 335°
2026-05-04 10:19 50.90191 4.48592 121 ft 0 kts 65°
2026-05-04 10:20 50.90192 4.48596 121 ft 3 kts 65°
2026-05-04 10:20 50.90218 4.48683 123 ft 10 kts 65°
2026-05-04 10:20 50.90248 4.48786 122 ft 11 kts 66°
2026-05-04 10:20 50.90295 4.48955 122 ft 22 kts 65°
2026-05-04 10:21 50.90375 4.49222 121 ft 31 kts 64°
2026-05-04 10:21 50.90452 4.49524 124 ft 16 kts 91°
2026-05-04 10:21 50.90383 4.49585 123 ft 11 kts 189°
2026-05-04 10:21 50.90276 4.49534 123 ft 21 kts 216°
2026-05-04 10:22 50.90014 4.49414 131 ft 20 kts 194°
2026-05-04 10:22 50.89887 4.49363 137 ft 18 kts 194°
2026-05-04 10:22 50.89765 4.49309 145 ft 20 kts 195°
2026-05-04 10:23 50.89621 4.49246 154 ft 21 kts 212°
2026-05-04 10:23 50.89484 4.49157 161 ft 22 kts 193°
2026-05-04 10:25 50.89333 4.49399 172 ft 98 kts 14°
2026-05-04 10:25 50.90199 4.49758 131 ft 156 kts 15°
2026-05-04 10:25 50.91335 4.50253 479 ft 174 kts 15°
2026-05-04 10:25 50.92453 4.50945 1206 ft 172 kts 31°
2026-05-04 10:26 50.93361 4.52143 1899 ft 172 kts 59°
2026-05-04 10:26 50.93665 4.53941 2517 ft 172 kts 96°
2026-05-04 10:26 50.93219 4.55655 3101 ft 171 kts 132°
2026-05-04 10:26 50.92366 4.56992 3589 ft 179 kts 137°
2026-05-04 10:27 50.91403 4.58429 3845 ft 201 kts 137°
2026-05-04 10:27 50.90322 4.60038 4087 ft 226 kts 137°
2026-05-04 10:27 50.89115 4.61835 4437 ft 250 kts 137°
2026-05-04 10:27 50.88254 4.63119 4766 ft 262 kts 137°
2026-05-04 10:28 50.86906 4.65133 5533 ft 269 kts 137°
2026-05-04 10:28 50.85534 4.67179 6394 ft 273 kts 137°
2026-05-04 10:28 50.84144 4.69254 7179 ft 276 kts 137°
2026-05-04 10:28 50.82736 4.71358 7983 ft 280 kts 138°
2026-05-04 10:29 50.81311 4.73492 8802 ft 284 kts 138°
2026-05-04 10:29 50.79865 4.75651 9614 ft 288 kts 138°
2026-05-04 10:29 50.78394 4.77838 10282 ft 297 kts 139°
2026-05-04 10:29 50.76830 4.80158 10512 ft 320 kts 138°
2026-05-04 10:30 50.75152 4.82650 10812 ft 339 kts 138°
2026-05-04 10:30 50.73418 4.85230 11435 ft 345 kts 138°
2026-05-04 10:30 50.71659 4.87844 12156 ft 349 kts 138°
2026-05-04 10:30 50.69888 4.90476 12875 ft 352 kts 138°
2026-05-04 10:31 50.68095 4.93131 13608 ft 355 kts 139°
2026-05-04 10:31 50.66280 4.95808 14266 ft 358 kts 139°
2026-05-04 10:32 50.55074 5.12317 17964 ft 377 kts 139°
2026-05-04 10:33 50.53153 5.15134 18568 ft 379 kts 139°
2026-05-04 10:33 50.51246 5.17920 19118 ft 380 kts 139°
2026-05-04 10:33 50.49301 5.20758 19677 ft 383 kts 140°
2026-05-04 10:33 50.47345 5.23610 20218 ft 385 kts 140°
2026-05-04 10:34 50.45374 5.26485 20761 ft 388 kts 140°
2026-05-04 10:34 50.43395 5.29371 21299 ft 390 kts 140°
2026-05-04 10:34 50.41393 5.32281 21821 ft 393 kts 141°
2026-05-04 10:34 50.39379 5.35203 22327 ft 395 kts 141°
2026-05-04 10:35 50.37354 5.38136 22820 ft 398 kts 141°
2026-05-04 10:35 50.35314 5.41094 23306 ft 400 kts 141°
2026-05-04 10:35 50.33265 5.44069 23753 ft 403 kts 141°
2026-05-04 10:35 50.31199 5.47056 24138 ft 405 kts 142°
2026-05-04 10:36 50.29122 5.50049 24517 ft 407 kts 142°
2026-05-04 10:36 50.27034 5.53058 24881 ft 409 kts 142°
2026-05-04 10:36 50.24931 5.56087 25232 ft 411 kts 142°
2026-05-04 10:36 50.22821 5.59125 25589 ft 414 kts 142°
2026-05-04 10:37 50.20702 5.62177 25949 ft 416 kts 142°
2026-05-04 10:37 50.18570 5.65247 26303 ft 418 kts 142°
2026-05-04 10:37 50.16423 5.68330 26649 ft 420 kts 142°
2026-05-04 10:37 50.14262 5.71424 26989 ft 422 kts 143°
2026-05-04 10:39 49.99428 5.85012 28939 ft 416 kts 166°
2026-05-04 10:39 49.96676 5.86427 29219 ft 417 kts 166°
2026-05-04 10:39 49.93919 5.87856 29499 ft 419 kts 166°
2026-05-04 10:40 49.91150 5.89289 29778 ft 420 kts 166°
2026-05-04 10:40 49.88369 5.90725 30025 ft 422 kts 166°
2026-05-04 10:40 49.85580 5.92164 30243 ft 423 kts 166°
2026-05-04 10:40 49.82779 5.93608 30461 ft 425 kts 166°
2026-05-04 10:41 49.79977 5.95047 30738 ft 423 kts 166°
2026-05-04 10:41 49.77187 5.96475 30973 ft 422 kts 166°
2026-05-04 10:41 49.74425 5.97885 31023 ft 413 kts 166°
2026-05-04 10:42 49.69009 6.00656 31034 ft 408 kts 166°
2026-05-04 10:42 49.63660 6.03390 31026 ft 407 kts 166°
2026-05-04 10:43 49.58274 6.06113 31016 ft 407 kts 166°
2026-05-04 10:44 49.40702 6.20134 31014 ft 419 kts 146°
2026-05-04 10:45 49.38433 6.22944 31018 ft 418 kts 147°
2026-05-04 10:45 49.33922 6.28504 30984 ft 418 kts 146°
2026-05-04 10:46 49.29375 6.34093 30990 ft 419 kts 146°
2026-05-04 10:46 49.24828 6.39675 31002 ft 419 kts 146°
2026-05-04 10:47 49.20288 6.45255 31006 ft 419 kts 146°
2026-05-04 10:47 49.15738 6.50831 31007 ft 419 kts 146°
2026-05-04 10:49 48.97141 6.72469 31000 ft 417 kts 159°
2026-05-04 10:50 48.91763 6.75707 31003 ft 415 kts 162°
2026-05-04 10:52 48.70237 6.88436 31020 ft 416 kts 163°
2026-05-04 10:52 48.64838 6.91613 31022 ft 416 kts 163°
2026-05-04 10:54 48.43287 7.04196 30992 ft 415 kts 163°
2026-05-04 10:56 48.24672 7.14985 28174 ft 395 kts 162°
2026-05-04 10:56 48.22119 7.16456 27642 ft 391 kts 162°
2026-05-04 10:56 48.19594 7.17912 27115 ft 387 kts 162°
2026-05-04 10:57 48.17091 7.19351 26602 ft 384 kts 162°
2026-05-04 10:57 48.14609 7.20778 26087 ft 380 kts 162°
2026-05-04 10:57 48.12147 7.22192 25584 ft 378 kts 162°
2026-05-04 10:57 48.09701 7.23595 25097 ft 376 kts 162°
2026-05-04 10:58 48.07266 7.24990 24595 ft 374 kts 162°
2026-05-04 10:58 48.04837 7.26381 24129 ft 372 kts 162°
2026-05-04 10:58 48.02436 7.27758 23667 ft 369 kts 161°
2026-05-04 10:58 48.00047 7.29124 23170 ft 366 kts 162°
2026-05-04 10:59 47.97677 7.30473 22722 ft 361 kts 162°
2026-05-04 10:59 47.95341 7.31801 22296 ft 357 kts 162°
2026-05-04 10:59 47.93037 7.33109 21877 ft 353 kts 162°
2026-05-04 10:59 47.90753 7.34411 21459 ft 349 kts 162°
2026-05-04 11:00 47.88525 7.35682 21049 ft 345 kts 162°
2026-05-04 11:01 47.73121 7.44403 17927 ft 336 kts 162°
2026-05-04 11:02 47.70945 7.45634 17480 ft 334 kts 162°
2026-05-04 11:02 47.68780 7.46857 17017 ft 332 kts 162°
2026-05-04 11:05 47.53907 7.89864 10393 ft 341 kts 112°
2026-05-04 11:06 47.53137 7.93111 10266 ft 328 kts 112°
2026-05-04 11:06 47.52395 7.96242 10135 ft 317 kts 112°
2026-05-04 11:06 47.51685 7.99232 10008 ft 307 kts 112°
2026-05-04 11:06 47.51117 8.02248 9634 ft 308 kts 100°
2026-05-04 11:08 47.55876 8.21700 6130 ft 269 kts 68°
2026-05-04 11:10 47.59697 8.37164 4485 ft 201 kts 108°
2026-05-04 11:12 47.53629 8.46184 2907 ft 159 kts 136°
2026-05-04 11:12 47.52589 8.47609 2620 ft 150 kts 137°
2026-05-04 11:12 47.52077 8.48312 2489 ft 148 kts 136°
2026-05-04 11:12 47.51319 8.49348 2285 ft 148 kts 135°
2026-05-04 11:13 47.50559 8.50381 2119 ft 148 kts 134°
2026-05-04 11:13 47.49815 8.51410 1892 ft 146 kts 135°
2026-05-04 11:13 47.49071 8.52419 1674 ft 144 kts 135°
2026-05-04 11:13 47.48335 8.53424 1482 ft 143 kts 133°
2026-05-04 11:14 47.47643 8.54392 1398 ft 121 kts 137°
2026-05-04 11:14 47.47155 8.55051 1386 ft 70 kts 140°
2026-05-04 11:14 47.46918 8.55369 1391 ft 26 kts 137°
2026-05-04 11:16 47.45966 8.55968 1406 ft 22 kts 189°
2026-05-04 11:16 47.45934 8.55909 1412 ft 3 kts 283°
2026-05-04 11:16 47.45945 8.55801 1404 ft 15 kts 277°
2026-05-04 11:17 47.45950 8.55722 1403 ft 0 kts 268°
2026-05-04 11:17 47.45957 8.55713 1403 ft 3 kts 321°
2026-05-04 11:19 47.46036 8.55736 1407 ft 0 kts